Location: Boiro
(42.6475°N, 8.8834°W)
Time: 05:50:45
(UTC+01:00)

Vanguard 1 - Pass Details

Date: 01 December 2021
Orbit: 652 x 3830 km, 34.2° (Epoch: 21 January)

Event Time Altitude Azimuth Distance (km) Brightness Sun altitude
Rises 22:25:17 0° 182° (S) 6,749 14.2 -47.4°
Enters shadow 22:29:58 - 171° (S) 6,341 14.0 -48.3°
Reaches altitude 10° 22:31:44 10° 166° (SSE) 6,223 - -48.6°
Maximum altitude 22:44:13 19° 129° (SE) 6,020 - -50.8°
Drops below altitude 10° 22:57:44 10° 93° (E) 6,897 - -53.1°
Sets 23:05:20 0° 79° (E) 7,718 - -54.4°
